User: anonymous   Login
Location: Unspecified
(0.0000°N, 0.0000°E)
Time: 19:26:32
(UTC+00:00)
Language:

GNOMES-4 - Orbit

View from above orbital plane
View from above orbital plane
View from above satellite
View from above satellite

Ground track
Ground track

The orbit is defined by the following mean orbital elements,

1 58462U          26145.61611977 +.00000000 +00000-0 +25862-3 0 00000
2 58462  97.4873 203.6042 0012315  51.0075 309.2244 15.00683364    02
Epoch (UTC): 25 May 2026 14:47:12
Eccentricity: 0.0012315
inclination: 97.4873°
perigee height: 556 km
apogee height: 573 km
right ascension of ascending node: 203.6042°
argument of perigee: 51.0075°
revolutions per day: 15.00683364
mean anomaly at epoch: 309.2244°

The dashed part of the orbit path shows where the satellite is in the earth's shadow,  

DLR